Location: *
(44.1392°N, 4.8079°E)
Time: 21:39:04
(UTC+00:00)

Lacrosse 4 Rocket - Pass Details

Date: 21 June 2021
Orbit: 543 x 614 km, 68.0° (Epoch: 02 August)

Event Time Altitude Azimuth Distance (km) Brightness Sun altitude
Rises 01:13:45 0° 332° (NNW) 2,742 5.5 -19.3°
Reaches altitude 10° 01:15:59 10° 336° (NNW) 1,835 4.6 -19.1°
Maximum altitude 01:20:04 64° 58° (ENE) 608 1.7 -18.8°
Enters shadow 01:23:00 18° 138° (SE) 1,390 3.1 -18.6°
